Flag for USA

Past Weather in White Lake, Michigan, USA — Yesterday and Last 2 Weeks

Now
78 °F

Scattered clouds.


Feels Like: 79 °F
Forecast: 81 / 62 °F
Wind: 12 mph from Northwest

Location: Oakland County International Airport

Current Time: Jul 12, 2020 at 8:01:33 pm

Latest Report: Jul 12, 2020 at 6:53 pm


Visibility: 10 mi

Pressure: 29.79 "Hg

Humidity: 45%

Dew Point: 55 °F

Location of White LakeLocation

Past Weather in White Lake — Graph

°F

White Lake Temperature Yesterday

Maximum temperature yesterday: 85 °F (at 3:53 pm)
Minimum temperature yesterday: 64 °F (at 6:53 am)
Average temperature yesterday: 73 °F

High & Low Weather Summary for the Past Weeks

 TemperatureHumidityPressure
High94 °F (Jul 7, 4:53 pm)93% (Jul 10, 10:09 pm)30.02 "Hg (Jul 10, 10:09 pm)
Low60 °F (Jul 5, 4:53 am)26% (Jul 2, 4:53 pm)29.70 "Hg (Jul 10, 4:53 pm)
Average78 °F60%29.90 "Hg
* Reported Jun 27 6:53 pm — Jul 12 6:53 pm, White Lake. Weather by CustomWeather, © 2020

Note: Actual official high and low records may vary slightly from our data, if they occured in-between our weather recording intervals... More about our weather records

White Lake Weather History for the Previous 24 Hours

Scroll right to see more
 ConditionsComfort  
Time TempWeatherWind HumidityBarometerVisibility
6:53 pm
Sun, Jul 12
78 °FScattered clouds.12 mph45%29.79 "Hg10 mi
5:53 pm78 °FBroken clouds.N/A48%29.79 "Hg10 mi
4:53 pm80 °FBroken clouds.12 mph44%29.79 "Hg10 mi
3:53 pm77 °FBroken clouds.9 mph52%29.79 "Hg10 mi
2:53 pm77 °FBroken clouds.10 mph52%29.79 "Hg10 mi
1:53 pm77 °FScattered clouds.14 mph54%29.79 "Hg10 mi
12:53 pm77 °FScattered clouds.15 mph50%29.79 "Hg10 mi
11:53 am73 °FPartly sunny.6 mph55%29.80 "Hg10 mi
10:53 am72 °FBroken clouds.9 mph59%29.80 "Hg10 mi
9:53 am69 °FBroken clouds.8 mph66%29.80 "Hg10 mi
8:53 am68 °FBroken clouds.10 mph70%29.80 "Hg10 mi
7:53 am67 °FBroken clouds.5 mph76%29.79 "Hg10 mi
6:53 am66 °FPartly sunny.3 mph81%29.79 "Hg10 mi
5:53 am65 °FPassing clouds.5 mph81%29.78 "Hg10 mi
4:53 am66 °FClear.3 mph75%29.76 "Hg10 mi
3:53 am67 °FPassing clouds.6 mph73%29.75 "Hg10 mi
2:53 am69 °FClear.7 mph70%29.76 "Hg10 mi
1:53 am69 °FClear.5 mph76%29.76 "Hg10 mi
12:53 am71 °FClear.7 mph66%29.76 "Hg10 mi
11:53 pm
Sat, Jul 11
72 °FPassing clouds.6 mph64%29.76 "Hg10 mi
10:53 pm74 °FPartly cloudy.8 mph62%29.77 "Hg10 mi
9:53 pm76 °FPartly cloudy.8 mph60%29.76 "Hg10 mi
8:53 pm78 °FBroken clouds.7 mph54%29.74 "Hg10 mi
Weather by CustomWeather, © 2020

See weather overview